Weather History for KLFI - January, 2013

Change the Weather History Date:

Thursday, January 31, 2013

  Actual Average Record
Temperature  
Mean Temperature 53 °F -  
Max Temperature 69 °F 48 °F 70 °F (1947)
Min Temperature 37 °F 32 °F 9 °F (1936)
Degree Days  
Heating Degree Days 12    
Growing Degree Days 3 (Base 50)    
Moisture  
Dew Point 46 °F    
Average Humidity 71    
Maximum Humidity 94    
Minimum Humidity 35    
Precipitation  
Precipitation 0.56 in - - ()
Sea Level Pressure  
Sea Level Pressure 29.53 in    
Wind  
Wind Speed 26 mph (SW)    
Max Wind Speed 52 mph    
Max Gust Speed 75 mph    
Visibility 6 miles    
Events Fog , Rain    
Averages and records for this station are not official NWS values.
T = Trace of Precipitation, MM = Missing Value Source: NWS Daily Summary

Daily Weather History Graph

Daily Weather History Graph

Search for Another Location

Airport or City:

Trip Planner

Search our weather history database for the weather conditions in past years. The results will help you decide how hot, cold, wet, or windy it might be!

Date:

Astronomy

Jan. 31, 2013 Rise Set
Actual Time 7:08 AM EST 5:29 PM EST
Civil Twilight 6:41 AM EST 5:57 PM EST
Nautical Twilight 6:10 AM EST 6:28 PM EST
Astronomical Twilight 5:39 AM EST 6:58 PM EST
Moon 10:20 PM EST (1/31) 9:14 AM EST (1/31)
Length of Visible Light 11h 15m
Length of Day
10h 20m
Waning Gibbous, 80% of the Moon is Illuminated
Jan 31
Waning Gibbous
Feb 3
Last Quarter
Feb 10
New
Feb 17
First Quarter
Feb 25
Full

Hourly Weather History & Observations

Time (EST) Temp. Windchill Dew Point Humidity Pressure Visibility Wind Dir Wind Speed Gust Speed Precip Events Conditions
12:43 AM 68.0 °F - 60.8 °F 78% 29.39 in 10.0 mi South 24.2 mph 44.9 mph N/A   Mostly Cloudy
12:55 AM 69.1 °F - 61.0 °F 75% 29.38 in 10.0 mi South 21.9 mph 41.4 mph N/A   Mostly Cloudy
1:55 AM 68.7 °F - 61.2 °F 77% 29.32 in 10.0 mi South 25.3 mph 41.4 mph N/A   Overcast
2:03 AM 68.0 °F - 60.8 °F 78% 29.31 in 10.0 mi South 26.5 mph 38.0 mph N/A Rain Light Rain
2:10 AM 68.0 °F - 62.6 °F 83% 29.31 in 8.0 mi South 28.8 mph 38.0 mph N/A Rain Light Rain
2:27 AM 66.2 °F - 62.6 °F 88% 29.39 in 3.0 mi South 31.1 mph 40.3 mph N/A Rain Light Rain
2:28 AM 66.2 °F - 62.6 °F 88% 29.40 in 2.5 mi SW 36.8 mph 67.9 mph N/A Rain Light Rain
2:29 AM 66.2 °F - 60.8 °F 83% 29.39 in 0.8 mi WSW 51.8 mph - N/A Rain Light Rain
2:33 AM 64.4 °F - 59.0 °F 83% 29.39 in 0.2 mi SW 43.7 mph 74.8 mph N/A Rain Heavy Rain
2:34 AM 62.6 °F - 59.0 °F 88% 29.39 in 0.2 mi SW 38.0 mph 74.8 mph N/A Rain Heavy Rain
2:35 AM 62.6 °F - 59.0 °F 88% 29.39 in 0.2 mi SW 33.4 mph 74.8 mph N/A Fog , Rain Heavy Rain
2:37 AM 62.6 °F - 59.0 °F 88% 29.39 in 0.2 mi SW 32.2 mph 74.8 mph N/A Fog , Rain Rain
2:40 AM 60.8 °F - 59.0 °F 94% 29.38 in 0.2 mi SW 24.2 mph 44.9 mph N/A Fog , Rain Light Rain
2:42 AM 60.8 °F - 59.0 °F 94% 29.36 in 0.5 mi SW 27.6 mph 56.4 mph N/A Rain Light Rain
2:47 AM 60.8 °F - 59.0 °F 94% 29.39 in 2.5 mi SW 28.8 mph 38.0 mph N/A Rain Light Rain
2:55 AM 60.6 °F - 58.3 °F 92% 29.40 in 2.5 mi WSW 33.4 mph 39.1 mph 0.39 in Rain Light Rain
2:59 AM 60.8 °F - 57.2 °F 88% 29.40 in 1.0 mi WSW 32.2 mph 47.2 mph N/A Rain Heavy Rain
3:15 AM 59.0 °F - 55.4 °F 88% 29.39 in 2.0 mi SW 26.5 mph 42.6 mph N/A Rain Light Rain
3:20 AM 59.0 °F - 55.4 °F 88% 29.39 in 2.0 mi SW 24.2 mph 33.4 mph N/A Rain Light Rain
3:21 AM 59.0 °F - 55.4 °F 88% 29.39 in 2.5 mi SW 25.3 mph 33.4 mph N/A Rain Light Rain
3:33 AM 59.0 °F - 53.6 °F 82% 29.38 in 2.5 mi SW 21.9 mph 33.4 mph N/A Rain Light Rain
3:34 AM 59.0 °F - 53.6 °F 82% 29.38 in 2.0 mi SW 20.7 mph 33.4 mph N/A Rain Light Rain
3:37 AM 59.0 °F - 53.6 °F 82% 29.37 in 2.5 mi SW 21.9 mph 33.4 mph N/A Rain Light Rain
3:38 AM 59.0 °F - 53.6 °F 82% 29.38 in 2.5 mi SW 20.7 mph 28.8 mph N/A Rain Light Rain
3:41 AM 57.2 °F - 53.6 °F 88% 29.38 in 2.5 mi SW 23.0 mph 28.8 mph N/A Rain Light Rain
3:42 AM 57.2 °F - 53.6 °F 88% 29.39 in 3.0 mi SW 23.0 mph 28.8 mph N/A Rain Light Rain
3:55 AM 57.6 °F - 53.1 °F 85% 29.38 in 10.0 mi SW 23.0 mph 34.5 mph 0.14 in Rain Light Rain
4:09 AM 57.2 °F - 51.8 °F 82% 29.37 in 10.0 mi SW 19.6 mph 26.5 mph N/A Rain Light Rain
4:28 AM 57.2 °F - 50.0 °F 77% 29.40 in 10.0 mi SW 25.3 mph 34.5 mph N/A   Overcast
4:55 AM 56.7 °F - 48.2 °F 73% 29.41 in 10.0 mi SW 27.6 mph 33.4 mph 0.00 in   Overcast
5:55 AM 55.0 °F - 47.5 °F 76% 29.45 in 10.0 mi WSW 26.5 mph 32.2 mph 0.01 in   Scattered Clouds
6:20 AM 55.4 °F - 46.4 °F 72% 29.47 in 10.0 mi WSW 24.2 mph 34.5 mph N/A   Overcast
6:43 AM 53.6 °F - 46.4 °F 77% 29.50 in 7.0 mi WSW 31.1 mph 36.8 mph N/A Rain Light Rain
6:48 AM 53.6 °F - 46.4 °F 77% 29.51 in 5.0 mi WSW 23.0 mph 36.8 mph N/A Rain Light Rain
6:55 AM 53.2 °F - 46.2 °F 77% 29.51 in 5.0 mi WSW 25.3 mph 36.8 mph 0.02 in Rain Light Rain
7:55 AM 50.2 °F - 41.7 °F 73% 29.58 in 10.0 mi WSW 19.6 mph - 0.00 in   Partly Cloudy
8:55 AM 50.5 °F - 36.1 °F 58% 29.63 in 10.0 mi West 23.0 mph 32.2 mph N/A   Clear
9:55 AM 49.1 °F - 30.9 °F 50% 29.68 in 10.0 mi West 27.6 mph 35.7 mph N/A   Clear
10:55 AM 48.9 °F - 29.5 °F 47% 29.71 in 10.0 mi WSW 20.7 mph 29.9 mph N/A   Clear
11:55 AM 49.8 °F - 28.4 °F 44% 29.73 in 10.0 mi West 21.9 mph 33.4 mph N/A   Clear
12:55 PM 50.4 °F - 25.7 °F 38% 29.73 in 10.0 mi West 23.0 mph 32.2 mph N/A   Clear
1:55 PM 51.3 °F - 25.7 °F 37% 29.73 in 10.0 mi West 20.7 mph 28.8 mph N/A   Clear
2:55 PM 50.0 °F - 24.4 °F 37% 29.75 in 10.0 mi West 19.6 mph 33.4 mph N/A   Clear
3:55 PM 49.1 °F - 22.6 °F 35% 29.79 in 10.0 mi West 18.4 mph 28.8 mph N/A   Clear
4:55 PM 47.1 °F - 20.8 °F 35% 29.83 in 10.0 mi West 24.2 mph 33.4 mph N/A   Clear
5:55 PM 44.6 °F 36.9 °F 19.9 °F 37% 29.87 in 10.0 mi West 18.4 mph 24.2 mph N/A   Clear
6:55 PM 43.3 °F 36.1 °F 20.3 °F 40% 29.91 in 10.0 mi West 15.0 mph - N/A   Partly Cloudy
7:55 PM 41.7 °F 34.4 °F 19.8 °F 41% 29.95 in 10.0 mi West 13.8 mph - N/A   Clear
8:55 PM 39.7 °F 33.7 °F 19.9 °F 45% 29.96 in 10.0 mi West 9.2 mph - N/A   Clear
9:55 PM 38.1 °F 32.3 °F 20.7 °F 49% 29.97 in 10.0 mi WSW 8.1 mph - N/A   Clear
10:55 PM 37.8 °F 31.3 °F 21.0 °F 51% 29.98 in 10.0 mi WSW 9.2 mph - N/A   Clear
11:55 PM 37.8 °F 30.2 °F 21.9 °F 53% 29.99 in 10.0 mi WSW 11.5 mph - N/A   Clear